Mineral Point, WI

6:27 PM CDT on April 29, 2017 (GMT -0500)
Iowa County

Weather History for KMRJ - January, 2013

Change the Weather History Date:

Thursday, January 31, 2013

  Actual Average (KLNR) Record (KLNR)
Temperature  
Mean Temperature 8 °F -  
Max Temperature 17 °F 28 °F 46 °F (2012)
Min Temperature 0 °F 13 °F -13 °F (2004)
Degree Days  
Heating Degree Days 56    
Moisture  
Dew Point 1 °F    
Average Humidity 71    
Maximum Humidity 79    
Minimum Humidity 62    
Precipitation  
Precipitation 0.00 in - - ()
Sea Level Pressure  
Sea Level Pressure 29.87 in    
Wind  
Wind Speed 16 mph (West)    
Max Wind Speed 23 mph    
Max Gust Speed 29 mph    
Visibility 8 miles    
Events Snow    
Averages and records for this station are not official NWS values.
T = Trace of Precipitation, MM = Missing Value Source: NWS Daily Summary

Daily Weather History Graph

Daily Weather History Graph

Search for Another Location

Airport or City:

Trip Planner

Search our weather history database for the weather conditions in past years. The results will help you decide how hot, cold, wet, or windy it might be!

Date:

Astronomy

Jan. 31, 2013 Rise Set
Actual Time 7:16 AM CST 5:12 PM CST
Civil Twilight 6:46 AM CST 5:43 PM CST
Nautical Twilight 6:12 AM CST 6:17 PM CST
Astronomical Twilight 5:39 AM CST 6:50 PM CST
Moon 10:24 PM CST (1/31) 9:07 AM CST (1/31)
Length of Visible Light 10h 56m
Length of Day
9h 56m
Waning Gibbous, 79% of the Moon is Illuminated
Jan 31
Waning Gibbous
Feb 3
Last Quarter
Feb 10
New
Feb 17
First Quarter
Feb 25
Full

Hourly Weather History & Observations

Time (CST) Temp. Windchill Dew Point Humidity Pressure Visibility Wind Dir Wind Speed Gust Speed Precip Events Conditions
12:15 AM 17.6 °F 3.2 °F 8.6 °F 68% 29.64 in 10.0 mi WNW 15.0 mph 20.7 mph N/A Snow Light Snow
12:55 AM 15.8 °F 4.2 °F 8.6 °F 73% 29.65 in 10.0 mi WNW 9.2 mph - N/A Snow Light Snow
1:15 AM 15.8 °F 5.1 °F 8.6 °F 73% 29.65 in 10.0 mi WNW 8.1 mph - N/A Snow Light Snow
1:35 AM 15.8 °F 2.7 °F 8.6 °F 73% 29.65 in 10.0 mi WNW 11.5 mph 16.1 mph N/A Snow Light Snow
1:55 AM 15.8 °F -0.2 °F 10.4 °F 79% 29.66 in 5.0 mi WNW 17.3 mph 24.2 mph N/A Snow Light Snow
2:15 AM 15.8 °F 0.9 °F 8.6 °F 73% 29.67 in 10.0 mi WNW 15.0 mph 20.7 mph N/A   Overcast
2:55 AM 15.8 °F 0.9 °F 8.6 °F 73% 29.67 in 10.0 mi West 15.0 mph 21.9 mph N/A   Overcast
3:15 AM 15.8 °F 0.9 °F 8.6 °F 73% 29.67 in 7.0 mi West 15.0 mph 18.4 mph N/A Snow Light Snow
3:35 AM 15.8 °F 2.1 °F 10.4 °F 79% 29.68 in 5.0 mi West 12.7 mph 19.6 mph N/A Snow Light Snow
3:55 AM 14.0 °F -3.0 °F 8.6 °F 79% 29.68 in 5.0 mi West 18.4 mph - N/A Snow Light Snow
4:15 AM 14.0 °F -1.4 °F 8.6 °F 79% 29.68 in 7.0 mi West 15.0 mph - N/A   Overcast
4:35 AM 14.0 °F -2.0 °F 6.8 °F 73% 29.68 in 10.0 mi West 16.1 mph 23.0 mph N/A Snow Light Snow
4:55 AM 14.0 °F -3.4 °F 8.6 °F 79% 29.69 in 10.0 mi West 19.6 mph - N/A   Overcast
5:15 AM 12.2 °F -4.8 °F 6.8 °F 79% 29.69 in 10.0 mi West 17.3 mph 23.0 mph N/A   Overcast
5:35 AM 12.2 °F -5.3 °F 5.0 °F 73% 29.70 in 10.0 mi West 18.4 mph - N/A   Mostly Cloudy
5:55 AM 10.4 °F -7.2 °F 5.0 °F 79% 29.71 in 10.0 mi West 17.3 mph - N/A   Mostly Cloudy
6:15 AM 10.4 °F -7.7 °F 3.2 °F 73% 29.72 in 10.0 mi West 18.4 mph 24.2 mph N/A   Overcast
6:35 AM 10.4 °F -7.2 °F 3.2 °F 73% 29.73 in 10.0 mi West 17.3 mph - N/A   Overcast
6:55 AM 10.4 °F -8.2 °F 3.2 °F 73% 29.74 in 10.0 mi West 19.6 mph 25.3 mph N/A   Overcast
7:15 AM 8.6 °F -10.0 °F 3.2 °F 79% 29.75 in 10.0 mi West 18.4 mph 25.3 mph N/A   Overcast
7:35 AM 8.6 °F -10.0 °F 3.2 °F 79% 29.76 in 10.0 mi West 18.4 mph 21.9 mph N/A   Overcast
7:55 AM 8.6 °F -8.3 °F 1.4 °F 73% 29.77 in 10.0 mi West 15.0 mph - N/A   Mostly Cloudy
8:15 AM 8.6 °F -8.3 °F 1.4 °F 73% 29.77 in 10.0 mi West 15.0 mph 19.6 mph N/A   Clear
8:35 AM 8.6 °F -7.7 °F 1.4 °F 73% 29.78 in 10.0 mi West 13.8 mph - N/A   Clear
8:55 AM 10.4 °F -4.1 °F 1.4 °F 67% 29.79 in 10.0 mi WNW 11.5 mph - N/A   Scattered Clouds
9:15 AM 10.4 °F -6.0 °F 1.4 °F 67% 29.80 in 10.0 mi West 15.0 mph 19.6 mph N/A   Scattered Clouds
9:35 AM 10.4 °F -7.2 °F 1.4 °F 67% 29.80 in 10.0 mi WNW 17.3 mph 24.2 mph N/A   Overcast
9:55 AM 10.4 °F -6.6 °F 1.4 °F 67% 29.82 in 10.0 mi West 16.1 mph 25.3 mph N/A   Overcast
10:15 AM 10.4 °F -7.7 °F 1.4 °F 67% 29.82 in 10.0 mi West 18.4 mph 21.9 mph N/A   Overcast
10:35 AM 10.4 °F -6.0 °F 1.4 °F 67% 29.83 in 10.0 mi WNW 15.0 mph 24.2 mph N/A   Overcast
10:55 AM 10.4 °F -7.7 °F 1.4 °F 67% 29.83 in 7.0 mi West 18.4 mph 25.3 mph N/A   Mostly Cloudy
11:15 AM 10.4 °F -7.7 °F 1.4 °F 67% 29.84 in 7.0 mi West 18.4 mph - N/A   Mostly Cloudy
11:35 AM 10.4 °F -6.0 °F 1.4 °F 67% 29.85 in 7.0 mi West 15.0 mph 20.7 mph N/A   Overcast
11:55 AM 10.4 °F -8.6 °F 1.4 °F 67% 29.85 in 5.0 mi West 20.7 mph - N/A   Haze
12:15 PM 10.4 °F -8.2 °F 1.4 °F 67% 29.85 in 5.0 mi West 19.6 mph 23.0 mph N/A   Haze
12:35 PM 10.4 °F -9.1 °F 1.4 °F 67% 29.86 in 4.0 mi West 21.9 mph 25.3 mph N/A   Haze
12:55 PM 10.4 °F -8.2 °F 1.4 °F 67% 29.86 in 5.0 mi West 19.6 mph 26.5 mph N/A   Haze
1:15 PM 10.4 °F -8.6 °F 1.4 °F 67% 29.87 in 7.0 mi West 20.7 mph - N/A   Overcast
1:35 PM 10.4 °F -9.1 °F 1.4 °F 67% 29.87 in 5.0 mi West 21.9 mph 26.5 mph N/A   Haze
1:55 PM 10.4 °F -7.7 °F -0.4 °F 62% 29.88 in 7.0 mi West 18.4 mph 26.5 mph N/A   Overcast
2:15 PM 10.4 °F -7.7 °F -0.4 °F 62% 29.88 in 7.0 mi West 18.4 mph 26.5 mph N/A   Overcast
2:35 PM 10.4 °F -8.2 °F 1.4 °F 67% 29.89 in 10.0 mi West 19.6 mph 23.0 mph N/A   Overcast
2:55 PM 10.4 °F -6.6 °F 1.4 °F 67% 29.90 in 10.0 mi West 16.1 mph 24.2 mph N/A   Overcast
3:15 PM 10.4 °F -9.5 °F -0.4 °F 62% 29.90 in 7.0 mi West 23.0 mph - N/A   Overcast
3:55 PM 8.6 °F -11.4 °F -0.4 °F 67% 29.93 in 5.0 mi West 21.9 mph 28.8 mph N/A   Haze
4:15 PM 8.6 °F -11.9 °F -0.4 °F 67% 29.94 in 7.0 mi West 23.0 mph 27.6 mph N/A   Overcast
4:35 PM 8.6 °F -11.0 °F -0.4 °F 67% 29.95 in 7.0 mi West 20.7 mph 24.2 mph N/A   Overcast
4:55 PM 6.8 °F -12.4 °F -0.4 °F 72% 29.96 in 5.0 mi West 18.4 mph 23.0 mph N/A   Haze
5:15 PM 5.0 °F -13.6 °F -4.0 °F 66% 29.97 in 10.0 mi West 16.1 mph 23.0 mph N/A   Overcast
5:35 PM 5.0 °F -13.6 °F -4.0 °F 66% 29.98 in 7.0 mi West 16.1 mph 25.3 mph N/A   Mostly Cloudy
5:55 PM 5.0 °F -14.2 °F -4.0 °F 66% 29.99 in 10.0 mi West 17.3 mph 25.3 mph N/A   Mostly Cloudy
6:15 PM 5.0 °F -15.2 °F -2.2 °F 72% 30.00 in 7.0 mi West 19.6 mph 27.6 mph N/A   Overcast
6:35 PM 5.0 °F -14.2 °F -2.2 °F 72% 30.02 in 5.0 mi West 17.3 mph 26.5 mph N/A   Haze
6:55 PM 5.0 °F -13.6 °F -2.2 °F 72% 30.03 in 5.0 mi WNW 16.1 mph 20.7 mph N/A   Haze
7:15 PM 3.2 °F -15.3 °F -2.2 °F 78% 30.04 in 7.0 mi WNW 15.0 mph 19.6 mph N/A   Overcast
7:35 PM 3.2 °F -13.1 °F -4.0 °F 72% 30.05 in 10.0 mi WNW 11.5 mph 20.7 mph N/A   Mostly Cloudy
8:15 PM 3.2 °F -13.1 °F -5.8 °F 66% 30.07 in 10.0 mi WNW 11.5 mph 16.1 mph N/A   Clear
8:35 PM 1.4 °F -16.9 °F -5.8 °F 72% 30.07 in 10.0 mi WNW 13.8 mph 18.4 mph N/A   Clear
8:55 PM 1.4 °F -15.3 °F -5.8 °F 72% 30.09 in 10.0 mi West 11.5 mph - N/A   Clear
9:15 PM 1.4 °F -14.5 °F -5.8 °F 72% 30.09 in 10.0 mi WNW 10.4 mph - N/A   Clear
9:35 PM 1.4 °F -13.5 °F -5.8 °F 72% 30.10 in 10.0 mi West 9.2 mph 17.3 mph N/A   Clear
9:55 PM 1.4 °F -16.1 °F -5.8 °F 72% 30.10 in 10.0 mi West 12.7 mph - N/A   Clear
10:15 PM 1.4 °F -15.3 °F -5.8 °F 72% 30.11 in 10.0 mi West 11.5 mph - N/A   Clear
10:35 PM 1.4 °F -15.3 °F -5.8 °F 72% 30.12 in 10.0 mi West 11.5 mph - N/A   Clear
10:55 PM 1.4 °F -16.9 °F -5.8 °F 72% 30.12 in 10.0 mi West 13.8 mph - N/A   Clear
11:15 PM -0.4 °F -19.9 °F -7.6 °F 72% 30.13 in 10.0 mi West 15.0 mph - N/A   Clear
11:35 PM -0.4 °F -18.4 °F -7.6 °F 72% 30.13 in 10.0 mi West 12.7 mph - N/A   Clear
11:55 PM -0.4 °F -18.4 °F -7.6 °F 72% 30.14 in 10.0 mi West 12.7 mph - N/A   Clear